| time (UTC) | temp F | wind direction | speed MPH | gust MPH | rain 1hr in | rain 24hr in | rain mn in | humidity % | barometer mb |
| 20260507003030 | 61 | 113 | 2.0 | 9.0 | 0.00 | 0.00 | 0.00 | 52 | 1017.8 |
| 20260507001531 | 62 | 145 | 0.0 | 8.0 | 0.00 | 0.00 | 0.00 | 52 | 1018.0 |
| 20260507000028 | 62 | 155 | 1.0 | 9.0 | 0.00 | 0.00 | 0.00 | 51 | 1017.9 |
| 20260506234540 | 61 | 130 | 3.0 | 10.0 | 0.00 | 0.00 | 0.00 | 51 | 1017.9 |
| 20260506233029 | 61 | 121 | 1.0 | 7.0 | 0.00 | 0.00 | 0.00 | 51 | 1018.0 |
| 20260506231533 | 61 | 161 | 2.0 | 9.0 | 0.00 | 0.00 | 0.00 | 52 | 1018.3 |
| 20260506230026 | 61 | 175 | 2.0 | 12.0 | 0.00 | 0.00 | 0.00 | 52 | 1018.4 |
| 20260506224528 | 61 | 158 | 3.0 | 11.0 | 0.00 | 0.00 | 0.00 | 52 | 1018.5 |
| 20260506223024 | 61 | 242 | 2.0 | 9.0 | 0.00 | 0.00 | 0.00 | 52 | 1018.6 |
| 20260506221523 | 61 | 203 | 2.0 | 8.0 | 0.00 | 0.00 | 0.00 | 52 | 1018.4 |
| 20260506220021 | 60 | 115 | 3.0 | 12.0 | 0.00 | 0.00 | 0.00 | 52 | 1018.5 |
| 20260506214523 | 60 | 176 | 3.0 | 8.0 | 0.00 | 0.00 | 0.00 | 53 | 1018.5 |
| 20260506213023 | 59 | 146 | 2.0 | 9.0 | 0.00 | 0.00 | 0.00 | 53 | 1018.4 |
| 20260506211521 | 60 | 157 | 1.0 | 9.0 | 0.00 | 0.00 | 0.00 | 53 | 1018.5 |
| 20260506210023 | 60 | 167 | 3.0 | 9.0 | 0.00 | 0.00 | 0.00 | 52 | 1018.4 |
| 20260506204515 | 60 | 92 | 1.0 | 10.0 | 0.00 | 0.00 | 0.00 | 53 | 1018.4 |
| 20260506203015 | 59 | 159 | 2.0 | 11.0 | 0.00 | 0.00 | 0.00 | 54 | 1018.3 |
| 20260506201519 | 58 | 140 | 4.0 | 9.0 | 0.00 | 0.00 | 0.00 | 54 | 1018.3 |
| 20260506200013 | 57 | 173 | 2.0 | 10.0 | 0.00 | 0.00 | 0.00 | 57 | 1018.3 |
| 20260506194520 | 57 | 159 | 0.0 | 10.0 | 0.00 | 0.00 | 0.00 | 58 | 1018.4 |
| 20260506193018 | 58 | 150 | 0.0 | 7.0 | 0.00 | 0.00 | 0.00 | 57 | 1018.4 |
| 20260506191518 | 58 | 159 | 1.0 | 8.0 | 0.00 | 0.00 | 0.00 | 57 | 1018.3 |
| 20260506190023 | 58 | 78 | 1.0 | 7.0 | 0.00 | 0.00 | 0.00 | 58 | 1018.2 |
| 20260506184505 | 57 | 136 | 3.0 | 9.0 | 0.00 | 0.00 | 0.00 | 59 | 1018.1 |
| 20260506183004 | 56 | 97 | 1.0 | 7.0 | 0.00 | 0.00 | 0.00 | 61 | 1018.1 |
| 20260506181503 | 55 | 273 | 0.0 | 8.0 | 0.00 | 0.00 | 0.00 | 63 | 1018.1 |
| 20260506180101 | 54 | 144 | 2.0 | 8.0 | 0.00 | 0.00 | 0.00 | 63 | 1018.0 |
| 20260506180002 | 54 | 144 | 2.0 | 8.0 | 0.00 | 0.00 | 0.00 | 63 | 1018.1 |
| 20260506174503 | 54 | 225 | 1.0 | 9.0 | 0.00 | 0.00 | 0.00 | 63 | 1018.0 |
| 20260506173002 | 55 | 155 | 0.0 | 9.0 | 0.00 | 0.00 | 0.00 | 63 | 1018.0 |
| 20260506171611 | 54 | 111 | 1.0 | 9.0 | 0.00 | 0.00 | 0.00 | 65 | 1017.9 |
| 20260506170104 | 55 | 178 | 3.0 | 9.0 | 0.00 | 0.00 | 0.00 | 62 | 1017.9 |
| 20260506164601 | 55 | 173 | 2.0 | 11.0 | 0.00 | 0.00 | 0.00 | 62 | 1017.8 |
| 20260506163121 | 54 | 106 | 0.0 | 8.0 | 0.00 | 0.00 | 0.00 | 64 | 1017.6 |
| 20260506161550 | 54 | 174 | 1.0 | 6.0 | 0.00 | 0.00 | 0.00 | 65 | 1017.5 |
| 20260506160050 | 53 | 159 | 3.0 | 10.0 | 0.00 | 0.00 | 0.00 | 65 | 1017.5 |
| 20260506154552 | 53 | 170 | 0.0 | 4.0 | 0.00 | 0.00 | 0.00 | 66 | 1017.2 |
| 20260506153042 | 53 | 134 | 2.0 | 10.0 | 0.00 | 0.00 | 0.00 | 67 | 1017.1 |
| 20260506151541 | 52 | 159 | 1.0 | 7.0 | 0.00 | 0.00 | 0.00 | 68 | 1016.9 |
| 20260506150034 | 51 | 80 | 3.0 | 8.0 | 0.00 | 0.00 | 0.00 | 70 | 1016.8 |
| 20260506144528 | 50 | 125 | 1.0 | 10.0 | 0.00 | 0.00 | 0.00 | 71 | 1016.6 |
| 20260506143026 | 50 | 101 | 0.0 | 10.0 | 0.00 | 0.00 | 0.00 | 71 | 1016.5 |
| 20260506141521 | 50 | 135 | 1.0 | 8.0 | 0.00 | 0.00 | 0.00 | 70 | 1016.3 |
| 20260506140028 | 50 | 178 | 2.0 | 8.0 | 0.00 | 0.00 | 0.00 | 70 | 1016.1 |
| 20260506134524 | 50 | 106 | 2.0 | 9.0 | 0.00 | 0.00 | 0.00 | 70 | 1015.9 |
| 20260506133022 | 50 | 178 | 0.0 | 10.0 | 0.00 | 0.00 | 0.00 | 69 | 1015.6 |
| 20260506131521 | 50 | 142 | 1.0 | 10.0 | 0.00 | 0.00 | 0.00 | 69 | 1015.5 |
| 20260506130021 | 50 | 140 | 1.0 | 11.0 | 0.00 | 0.00 | 0.00 | 70 | 1015.3 |
| 20260506124524 | 50 | 111 | 1.0 | 8.0 | 0.00 | 0.00 | 0.00 | 70 | 1015.2 |
| 20260506123022 | 50 | 188 | 1.0 | 7.0 | 0.00 | 0.00 | 0.00 | 69 | 1015.1 |
| 20260506121520 | 50 | 97 | 0.0 | 7.0 | 0.00 | 0.00 | 0.00 | 70 | 1014.9 |
| 20260506120018 | 51 | 106 | 1.0 | 6.0 | 0.00 | 0.00 | 0.00 | 69 | 1014.6 |
| 20260506114510 | 51 | 100 | 2.0 | 9.0 | 0.00 | 0.00 | 0.00 | 69 | 1014.5 |
| 20260506113009 | 51 | 165 | 2.0 | 9.0 | 0.00 | 0.00 | 0.00 | 68 | 1014.2 |
| 20260506111515 | 52 | 159 | 1.0 | 10.0 | 0.00 | 0.00 | 0.00 | 69 | 1014.1 |
| 20260506110009 | 52 | 150 | 3.0 | 11.0 | 0.00 | 0.00 | 0.00 | 70 | 1014.0 |
| 20260506104508 | 52 | 37 | 2.0 | 11.0 | 0.00 | 0.00 | 0.00 | 69 | 1013.9 |
| 20260506103008 | 52 | 128 | 2.0 | 13.0 | 0.00 | 0.00 | 0.00 | 69 | 1013.9 |
| 20260506101506 | 53 | 113 | 1.0 | 10.0 | 0.00 | 0.00 | 0.00 | 69 | 1013.8 |
| 20260506100006 | 53 | 153 | 1.0 | 7.0 | 0.00 | 0.00 | 0.00 | 68 | 1013.7 |
| 20260506094509 | 53 | 137 | 2.0 | 8.0 | 0.00 | 0.00 | 0.00 | 68 | 1013.5 |
| 20260506093008 | 54 | 225 | 0.0 | 6.0 | 0.00 | 0.00 | 0.00 | 68 | 1013.2 |
| 20260506091506 | 54 | 129 | 0.0 | 5.0 | 0.00 | 0.00 | 0.00 | 67 | 1013.2 |
| 20260506090004 | 54 | 73 | 1.0 | 8.0 | 0.00 | 0.00 | 0.00 | 67 | 1013.0 |
| 20260506084630 | 55 | 137 | 2.0 | 8.0 | 0.00 | 0.00 | 0.00 | 67 | 1012.8 |
| 20260506083058 | 55 | 177 | 2.0 | 11.0 | 0.00 | 0.00 | 0.00 | 67 | 1012.7 |
| 20260506081610 | 56 | 100 | 0.0 | 9.0 | 0.00 | 0.00 | 0.00 | 67 | 1012.7 |
| 20260506073056 | 57 | 146 | 2.0 | 8.0 | 0.00 | 0.00 | 0.00 | 67 | 1012.3 |
| 20260506071555 | 58 | 262 | 2.0 | 15.0 | 0.00 | 0.00 | 0.00 | 67 | 1012.3 |
| 20260506061555 | 59 | 104 | 2.0 | 6.0 | 0.00 | 0.00 | 0.00 | 66 | 1011.9 |
| 20260506050113 | 64 | 99 | 2.0 | 9.0 | 0.00 | 0.00 | 0.00 | 59 | 1010.9 |
| 20260506044556 | 65 | 159 | 0.0 | 10.0 | 0.00 | 0.00 | 0.00 | 59 | 1010.7 |
| 20260506043058 | 65 | 196 | 1.0 | 10.0 | 0.00 | 0.00 | 0.00 | 59 | 1010.4 |
| 20260506041602 | 65 | 78 | 1.0 | 8.0 | 0.00 | 0.00 | 0.00 | 58 | 1010.1 |
| 20260506040054 | 65 | 153 | 2.0 | 12.0 | 0.00 | 0.00 | 0.00 | 58 | 1010.0 |
| 20260506034558 | 66 | 107 | 2.0 | 8.0 | 0.00 | 0.00 | 0.00 | 58 | 1009.8 |
| 20260506033055 | 67 | 184 | 1.0 | 5.0 | 0.00 | 0.00 | 0.00 | 57 | 1009.8 |
| 20260506031555 | 68 | 232 | 0.0 | 11.0 | 0.00 | 0.00 | 0.00 | 55 | 1009.7 |
| 20260506030053 | 69 | 187 | 2.0 | 8.0 | 0.00 | 0.00 | 0.00 | 53 | 1009.7 |
| 20260506024550 | 69 | 69 | 1.0 | 8.0 | 0.00 | 0.00 | 0.00 | 53 | 1009.6 |
| 20260506023105 | 70 | 166 | 1.0 | 11.0 | 0.00 | 0.00 | 0.00 | 52 | 1009.4 |
| 20260506021549 | 71 | 127 | 4.0 | 10.0 | 0.00 | 0.00 | 0.00 | 51 | 1009.4 |
| 20260506020053 | 71 | 106 | 3.0 | 9.0 | 0.00 | 0.00 | 0.00 | 50 | 1009.4 |
| 20260506014551 | 72 | 181 | 1.0 | 9.0 | 0.00 | 0.00 | 0.00 | 51 | 1009.3 |
| 20260506013055 | 73 | 174 | 1.0 | 7.0 | 0.00 | 0.00 | 0.00 | 49 | 1009.3 |
| 20260506011549 | 73 | 113 | 0.0 | 9.0 | 0.00 | 0.00 | 0.00 | 50 | 1009.5 |
| 20260506010049 | 72 | 167 | 2.0 | 9.0 | 0.00 | 0.00 | 0.00 | 50 | 1009.4 |
| 20260506004546 | 73 | 117 | 1.0 | 9.0 | 0.00 | 0.00 | 0.00 | 48 | 1009.4 |